Weather History for Tulsa Jones, OK

Change the Weather History Date:

Thursday, November 15, 2012

  Actual Average (KTUL) Record (KTUL)
Temperature  
Mean Temperature 46 °F 51 °F  
Max Temperature 63 °F 61 °F 82 °F (1950)
Min Temperature 30 °F 40 °F 11 °F (1940)
Degree Days  
Heating Degree Days 18 15  
Month to date heating degree days 176  
Since 1 July heating degree days 362  
Moisture  
Dew Point 30 °F    
Average Humidity 59    
Maximum Humidity 85    
Minimum Humidity 26    
Precipitation  
Precipitation 0.00 in 0.09 in 2.50 in (1964)
Month to date precipitation 1.57  
Year to date precipitation 37.24  
Sea Level Pressure  
Sea Level Pressure 30.33 in    
Wind  
Wind Speed 2 mph (SSE)    
Max Wind Speed 9 mph    
Max Gust Speed -    
Visibility 10 miles    
Events      
T = Trace of Precipitation, MM = Missing Value Source: NWS Daily Summary

Daily Weather History Graph

Daily Weather History Graph

Search for Another Location

Airport:

Trip Planner

Search our weather history database for the weather conditions in past years. The results will help you decide how hot, cold, wet, or windy it might be!

Date:

Astronomy

Nov. 15, 2012 Rise Set
Actual Time 7:01 AM CST 5:15 PM CST
Civil Twilight 6:33 AM CST 5:43 PM CST
Nautical Twilight 6:02 AM CST 6:14 PM CST
Astronomical Twilight 5:32 AM CST 6:44 PM CST
Moon 8:55 AM CST (11/15) 7:10 PM CST (11/15)
Length of Visible Light 11h 09m
Length of Day
10h 14m
Waxing Crescent, 5% of the Moon is Illuminated
Nov 15
Waxing Crescent
Nov 20
First Quarter
Nov 28
Full
Dec 6
Last Quarter
Dec 13
New

Hourly Weather History & Observations

Time (CST) Temp. Windchill Dew Point Humidity Pressure Visibility Wind Dir Wind Speed Gust Speed Precip Events Conditions
12:53 AM 36.0 °F - 28.9 °F 76% 30.30 in 10.0 mi Calm Calm - N/A   Clear
1:53 AM 35.1 °F - 28.9 °F 78% 30.32 in 10.0 mi Calm Calm - N/A   Clear
2:53 AM 35.1 °F - 30.0 °F 82% 30.31 in 10.0 mi Calm Calm - N/A   Clear
3:53 AM 34.0 °F - 28.0 °F 79% 30.30 in 10.0 mi Calm Calm - N/A   Clear
4:53 AM 30.9 °F - 27.0 °F 85% 30.30 in 10.0 mi Calm Calm - N/A   Clear
5:53 AM 32.0 °F - 28.0 °F 85% 30.32 in 10.0 mi Calm Calm - N/A   Clear
7:53 AM 34.0 °F - 28.9 °F 82% 30.35 in 10.0 mi Calm Calm - N/A   Clear
8:53 AM 43.0 °F 41.3 °F 32.0 °F 65% 30.36 in 10.0 mi South 3.5 mph - N/A   Clear
9:53 AM 50.0 °F - 28.9 °F 44% 30.37 in 10.0 mi South 8.1 mph - N/A   Clear
10:53 AM 55.9 °F - 28.0 °F 34% 30.36 in 10.0 mi South 9.2 mph - N/A   Clear
11:53 AM 57.9 °F - 27.0 °F 31% 30.34 in 10.0 mi SSW 9.2 mph - N/A   Clear
12:53 PM 61.0 °F - 27.0 °F 27% 30.31 in 10.0 mi SSW 5.8 mph - N/A   Clear
1:53 PM 62.1 °F - 28.0 °F 28% 30.30 in 10.0 mi SE 6.9 mph - N/A   Clear
2:53 PM 63.0 °F - 27.0 °F 26% 30.29 in 10.0 mi SE 5.8 mph - N/A   Clear
3:53 PM 62.1 °F - 28.9 °F 29% 30.29 in 10.0 mi East 4.6 mph - N/A   Clear
4:53 PM 57.9 °F - 28.9 °F 33% 30.30 in 10.0 mi ESE 8.1 mph - N/A   Clear
5:53 PM 50.0 °F - 30.0 °F 46% 30.33 in 10.0 mi Calm Calm - N/A   Clear
6:53 PM 46.9 °F - 34.0 °F 61% 30.34 in 10.0 mi Calm Calm - N/A   Clear
7:53 PM 45.0 °F - 34.0 °F 65% 30.36 in 10.0 mi Calm Calm - N/A   Clear
8:53 PM 43.0 °F - 32.0 °F 65% 30.37 in 10.0 mi Calm Calm - N/A   Clear
9:53 PM 39.0 °F - 32.0 °F 76% 30.38 in 10.0 mi Calm Calm - N/A   Clear
10:53 PM 37.0 °F - 30.9 °F 79% 30.38 in 10.0 mi Calm Calm - N/A   Clear
11:53 PM 37.0 °F - 32.0 °F 82% 30.39 in 10.0 mi Calm Calm - N/A   Clear